Location: Bailen
(14.1842°N, 120.7958°E)
Time: 03:50:32
(UTC+00:00)

Cosmos 2074 Rocket - Visible Passes

Search period start: 21 April 2026 00:00
Search period end: 01 May 2026 00:00
Orbit: 967 x 984 km, 82.9° (Epoch: 20 April)

Date Brightness Start Highest point End Pass type
(mag) Time Alt. Az. Time Alt. Az. Time Alt. Az.
21 Apr 6.7 11:09:22 10° SW 11:13:53 21° W 11:18:25 10° NW visible
21 Apr 7.0 20:36:42 10° NE 20:40:18 16° E 20:43:53 10° ESE visible
22 Apr 5.9 21:00:14 10° NNE 21:05:52 34° E 21:11:26 10° SSE visible
24 Apr 6.5 10:39:54 10° SW 10:44:55 26° W 10:49:58 10° NNW visible
24 Apr 7.1 20:08:50 10° ENE 20:11:19 12° E 20:13:49 10° ESE visible
25 Apr 7.4 11:08:56 10° W 11:10:31 11° W 11:12:07 10° WNW visible
25 Apr 6.2 20:31:39 10° NNE 20:36:55 28° E 20:42:09 10° SE visible
26 Apr 4.7 20:56:13 10° N 21:02:24 61° E 21:08:33 10° SSE visible
28 Apr 7.2 10:38:26 10° WSW 10:41:32 14° W 10:44:38 10° NW visible
28 Apr 6.4 20:03:08 10° NNE 20:07:57 23° E 20:12:45 10° SE visible
29 Apr 5.0 20:27:25 10° N 20:33:28 50° E 20:39:28 10° SSE visible
30 Apr 4.0 20:52:36 10° N 20:58:53 78° W 21:05:07 10° S visible
